Weather History for Columbia Airport, CA

Change the Weather History Date:

Monday, October 28, 2013

  Actual Average (KMOD) Record (KMOD)
Temperature  
Mean Temperature 48 °F -  
Max Temperature 53 °F 74 °F 86 °F (2003)
Min Temperature 44 °F 50 °F 32 °F (1946)
Degree Days  
Heating Degree Days 16 4  
Month to date heating degree days 46  
Since 1 July heating degree days 49  
Cooling Degree Days 0 1  
Month to date cooling degree days 83  
Year to date cooling degree days 1695  
Growing Degree Days 0 (Base 50)    
Moisture  
Dew Point 41 °F    
Average Humidity 83    
Maximum Humidity 100    
Minimum Humidity 58    
Precipitation  
Precipitation 0.20 in 0.03 in 1.18 in (1964)
Month to date precipitation 0.57  
Year to date precipitation 9.60  
Since 1 July precipitation 0.85  
Snow  
Snow 0.00 in - 0.00 in (2002)
Month to date snowfall  
Since 1 July snowfall  
Since 1 September snowfall  
Snow Depth -    
Sea Level Pressure  
Sea Level Pressure 29.73 in    
Wind  
Wind Speed 2 mph (South)    
Max Wind Speed 8 mph    
Max Gust Speed -    
Visibility 9 miles    
Events      
T = Trace of Precipitation, MM = Missing Value Source: NWS Daily Summary

Daily Weather History Graph

Daily Weather History Graph

Search for Another Location

Airport:

Trip Planner

Search our weather history database for the weather conditions in past years. The results will help you decide how hot, cold, wet, or windy it might be!

Date:

Astronomy

Oct. 28, 2013 Rise Set
Actual Time 7:23 AM PDT 6:06 PM PDT
Civil Twilight 6:56 AM PDT 6:33 PM PDT
Nautical Twilight 6:25 AM PDT 7:04 PM PDT
Astronomical Twilight 5:54 AM PDT 7:35 PM PDT
Moon 1:26 AM PDT (10/28) 2:46 PM PDT (10/28)
Length of Visible Light 11h 37m
Length of Day
10h 43m
Waning Crescent, 33% of the Moon is Illuminated
Oct 28
Waning Crescent
Nov 3
New
Nov 9
First Quarter
Nov 17
Full
Nov 25
Last Quarter

Hourly Weather History & Observations

Time (PDT) Temp. Windchill Dew Point Humidity Pressure Visibility Wind Dir Wind Speed Gust Speed Precip Events Conditions
12:15 AM 48.2 °F - 41.0 °F 76% 29.66 in 10.0 mi Calm Calm - N/A   Overcast
12:35 AM 48.2 °F - 41.0 °F 76% 29.66 in 10.0 mi South 4.6 mph - N/A   Overcast
12:55 AM 46.4 °F 42.9 °F 41.0 °F 81% 29.66 in 10.0 mi South 6.9 mph - N/A   Overcast
1:15 AM 46.4 °F 42.9 °F 41.0 °F 81% 29.66 in 9.0 mi South 6.9 mph - N/A   Overcast
1:35 AM 46.4 °F 44.3 °F 41.0 °F 81% 29.66 in 10.0 mi SSW 4.6 mph - N/A   Mostly Cloudy
1:55 AM 46.4 °F 45.2 °F 41.0 °F 81% 29.66 in 10.0 mi South 3.5 mph - N/A   Overcast
2:15 AM 46.4 °F - 41.0 °F 81% 29.66 in 8.0 mi Calm Calm - N/A   Overcast
2:35 AM 46.4 °F 45.2 °F 41.0 °F 81% 29.67 in 10.0 mi SSW 3.5 mph - N/A   Overcast
2:55 AM 46.4 °F 44.3 °F 39.2 °F 76% 29.67 in 10.0 mi South 4.6 mph - N/A   Overcast
3:15 AM 46.4 °F 42.9 °F 39.2 °F 76% 29.67 in 10.0 mi SW 6.9 mph - N/A   Overcast
3:35 AM 46.4 °F - 39.2 °F 76% 29.67 in 10.0 mi Calm Calm - N/A   Overcast
3:55 AM 46.4 °F - 39.2 °F 76% 29.67 in 10.0 mi Calm Calm - N/A   Overcast
4:15 AM 46.4 °F - 39.2 °F 76% 29.67 in 10.0 mi Calm Calm - N/A   Overcast
4:35 AM 46.4 °F - 39.2 °F 76% 29.66 in 10.0 mi Calm Calm - N/A   Overcast
4:55 AM 46.4 °F - 39.2 °F 76% 29.65 in 10.0 mi Calm Calm - N/A   Overcast
5:15 AM 46.4 °F - 41.0 °F 81% 29.65 in 5.0 mi Calm Calm - N/A   Mostly Cloudy
5:35 AM 44.6 °F - 42.8 °F 93% 29.66 in 2.5 mi Calm Calm - 0.04 in   Mostly Cloudy
5:55 AM 44.6 °F - 42.8 °F 93% 29.66 in 8.0 mi Calm Calm - 0.04 in   Overcast
6:15 AM 44.6 °F - 42.8 °F 93% 29.66 in 7.0 mi Calm Calm - N/A   Mostly Cloudy
6:35 AM 44.6 °F - 42.8 °F 93% 29.66 in 2.0 mi Calm Calm - 0.02 in   Overcast
6:55 AM 44.6 °F - 42.8 °F 93% 29.66 in 4.0 mi Calm Calm - 0.03 in   Overcast
7:15 AM 44.6 °F - 42.8 °F 93% 29.67 in 5.0 mi Calm Calm - N/A   Overcast
7:35 AM 44.6 °F - 42.8 °F 93% 29.67 in 5.0 mi Calm Calm - N/A   Mostly Cloudy
7:55 AM 44.6 °F - 42.8 °F 93% 29.68 in 7.0 mi Calm Calm - N/A   Mostly Cloudy
8:15 AM 44.6 °F - 42.8 °F 93% 29.69 in 8.0 mi Calm Calm - 0.01 in   Overcast
8:35 AM 44.6 °F - 42.8 °F 93% 29.70 in 10.0 mi Calm Calm - 0.01 in   Overcast
8:55 AM 44.6 °F - 42.8 °F 93% 29.71 in 4.0 mi Calm Calm - 0.01 in   Overcast
9:15 AM 44.6 °F - 42.8 °F 93% 29.71 in 9.0 mi Calm Calm - N/A   Overcast
9:35 AM 44.6 °F - 44.6 °F 100% 29.72 in 10.0 mi Calm Calm - N/A   Overcast
9:55 AM 46.4 °F - 44.6 °F 93% 29.72 in 10.0 mi Calm Calm - N/A   Overcast
10:15 AM 46.4 °F - 42.8 °F 87% 29.72 in 10.0 mi Calm Calm - N/A   Overcast
10:35 AM 48.2 °F - 42.8 °F 82% 29.72 in 10.0 mi Calm Calm - N/A   Overcast
10:55 AM 48.2 °F - 41.0 °F 76% 29.72 in 10.0 mi Calm Calm - N/A   Overcast
11:15 AM 48.2 °F - 41.0 °F 76% 29.73 in 10.0 mi Calm Calm - N/A   Overcast
11:35 AM 48.2 °F - 41.0 °F 76% 29.74 in 10.0 mi Calm Calm - N/A   Overcast
11:55 AM 51.8 °F - 41.0 °F 67% 29.73 in 10.0 mi South 3.5 mph - N/A   Mostly Cloudy
12:15 PM 51.8 °F - 41.0 °F 67% 29.73 in 10.0 mi SE 5.8 mph - N/A   Mostly Cloudy
12:35 PM 50.0 °F - 41.0 °F 71% 29.73 in 10.0 mi SSE 5.8 mph - N/A   Overcast
12:55 PM 50.0 °F - 39.2 °F 66% 29.73 in 10.0 mi SSE 4.6 mph - N/A   Overcast
1:15 PM 51.8 °F - 39.2 °F 62% 29.73 in 10.0 mi South 8.1 mph - N/A   Overcast
1:35 PM 53.6 °F - 39.2 °F 58% 29.73 in 10.0 mi South 5.8 mph - N/A   Mostly Cloudy
1:55 PM 50.0 °F - 39.2 °F 66% 29.73 in 10.0 mi Calm Calm - N/A   Mostly Cloudy
2:15 PM 50.0 °F - 41.0 °F 71% 29.73 in 10.0 mi Calm Calm - N/A   Mostly Cloudy
2:35 PM 48.2 °F - 39.2 °F 71% 29.74 in 9.0 mi Calm Calm - N/A   Mostly Cloudy
2:55 PM 46.4 °F - 42.8 °F 87% 29.75 in 4.0 mi Calm Calm - 0.05 in   Mostly Cloudy
3:15 PM 44.6 °F - 41.0 °F 87% 29.75 in 3.0 mi Calm Calm - 0.03 in   Mostly Cloudy
3:35 PM 44.6 °F 42.2 °F 42.8 °F 93% 29.75 in 2.5 mi East 4.6 mph - 0.07 in   Mostly Cloudy
3:55 PM 46.4 °F 45.2 °F 44.6 °F 93% 29.75 in 10.0 mi East 3.5 mph - 0.07 in   Scattered Clouds
4:15 PM 48.2 °F - 44.6 °F 87% 29.75 in 10.0 mi Calm Calm - N/A   Mostly Cloudy
4:35 PM 48.2 °F - 44.6 °F 87% 29.76 in 10.0 mi Calm Calm - N/A   Mostly Cloudy
4:55 PM 48.2 °F - 42.8 °F 82% 29.76 in 10.0 mi Calm Calm - N/A   Scattered Clouds
5:15 PM 46.4 °F - 42.8 °F 87% 29.76 in 10.0 mi Calm Calm - N/A   Partly Cloudy
5:35 PM 46.4 °F - 41.0 °F 81% 29.76 in 10.0 mi Calm Calm - N/A   Clear
5:55 PM 46.4 °F - 42.8 °F 87% 29.76 in 10.0 mi Calm Calm - N/A   Mostly Cloudy
6:15 PM 44.6 °F - 41.0 °F 87% 29.76 in 10.0 mi Calm Calm - N/A   Mostly Cloudy
6:35 PM 44.6 °F - 41.0 °F 87% 29.77 in 10.0 mi Calm Calm - N/A   Mostly Cloudy
6:55 PM 44.6 °F - 39.2 °F 81% 29.78 in 10.0 mi Calm Calm - N/A   Overcast
7:15 PM 44.6 °F - 39.2 °F 81% 29.79 in 10.0 mi Calm Calm - N/A   Overcast
7:35 PM 44.6 °F - 41.0 °F 87% 29.80 in 10.0 mi Calm Calm - N/A   Overcast
7:55 PM 44.6 °F - 41.0 °F 87% 29.80 in 10.0 mi Calm Calm - N/A   Overcast
8:15 PM 44.6 °F - 41.0 °F 87% 29.80 in 10.0 mi Calm Calm - N/A   Overcast
8:35 PM 44.6 °F - 41.0 °F 87% 29.81 in 10.0 mi Calm Calm - N/A   Overcast
8:55 PM 44.6 °F - 41.0 °F 87% 29.81 in 10.0 mi Calm Calm - N/A   Overcast
9:15 PM 44.6 °F - 41.0 °F 87% 29.82 in 10.0 mi Calm Calm - N/A   Overcast
9:35 PM 44.6 °F - 42.8 °F 93% 29.83 in 10.0 mi Calm Calm - N/A   Overcast
9:55 PM 44.6 °F - 42.8 °F 93% 29.84 in 10.0 mi Calm Calm - N/A   Overcast
10:15 PM 44.6 °F - 42.8 °F 93% 29.84 in 10.0 mi Calm Calm - N/A   Overcast
10:35 PM 46.4 °F - 41.0 °F 81% 29.85 in 10.0 mi Calm Calm - N/A   Overcast
10:55 PM 46.4 °F - 41.0 °F 81% 29.86 in 10.0 mi Calm Calm - N/A   Overcast
11:15 PM 46.4 °F - 41.0 °F 81% 29.87 in 10.0 mi Calm Calm - N/A   Overcast
11:35 PM 46.4 °F - 42.8 °F 87% 29.87 in 10.0 mi Calm Calm - N/A   Overcast
11:55 PM 46.4 °F - 42.8 °F 87% 29.87 in 10.0 mi Calm Calm - N/A   Overcast